RUK6958 EIKY-EGCC

Flight info

Callsign RUK6958
Flight time 0h 46m
Altitude 33000
Route SHA DCT BOFUM Q37 MALUD
Aircraft B738/M-SDE1E2E3FGIJ1LRWYZ/SB1

Departure

Time 2026-04-20 22:44
Airport Kerry Airport (EIKY)

Arrival

Time 2026-04-20 23:31
Airport Manchester Airport (EGCC)
Time Latitude Longitude Altitude Speed Heading
2026-04-20 22:21 52.18110 -9.53582 90 ft 0 kts 347°
2026-04-20 22:40 52.18115 -9.53580 90 ft 2 kts
2026-04-20 22:41 52.18120 -9.53571 90 ft 1 kts 57°
2026-04-20 22:41 52.18114 -9.53559 89 ft 2 kts 149°
2026-04-20 22:41 52.18101 -9.53566 90 ft 2 kts 198°
2026-04-20 22:41 52.18084 -9.53574 90 ft 3 kts 194°
2026-04-20 22:42 52.18043 -9.53592 90 ft 12 kts 196°
2026-04-20 22:42 52.17924 -9.53586 90 ft 20 kts 158°
2026-04-20 22:42 52.17874 -9.53554 91 ft 8 kts 162°
2026-04-20 22:42 52.17831 -9.53610 91 ft 14 kts 242°
2026-04-20 22:43 52.17793 -9.53715 91 ft 4 kts 287°
2026-04-20 22:43 52.17808 -9.53712 91 ft 4 kts 50°
2026-04-20 22:43 52.17860 -9.53482 91 ft 50 kts 71°
2026-04-20 22:43 52.18060 -9.52514 93 ft 126 kts 72°
2026-04-20 22:44 52.18365 -9.50960 560 ft 147 kts 73°
2026-04-20 22:44 52.18678 -9.49414 1386 ft 146 kts 72°
2026-04-20 22:44 52.19006 -9.47851 1930 ft 145 kts 72°
2026-04-20 22:44 52.19332 -9.46300 2282 ft 146 kts 73°
2026-04-20 22:45 52.19659 -9.44735 2637 ft 145 kts 74°
2026-04-20 22:45 52.19981 -9.43189 2999 ft 144 kts 75°
2026-04-20 22:45 52.20309 -9.41609 3294 ft 159 kts 75°
2026-04-20 22:45 52.20761 -9.39776 3579 ft 191 kts 65°
2026-04-20 22:46 52.21475 -9.37764 3795 ft 217 kts 62°
2026-04-20 22:46 52.22308 -9.35538 3986 ft 242 kts 61°
2026-04-20 22:46 52.23204 -9.33160 4524 ft 254 kts 61°
2026-04-20 22:46 52.24135 -9.30683 5392 ft 257 kts 61°
2026-04-20 22:47 52.25073 -9.28169 6281 ft 260 kts 61°
2026-04-20 22:47 52.26020 -9.25615 7097 ft 266 kts 61°
2026-04-20 22:47 52.26986 -9.23006 7978 ft 270 kts 61°
2026-04-20 22:47 52.27966 -9.20350 8832 ft 274 kts 61°
2026-04-20 22:48 52.28955 -9.17658 9701 ft 279 kts 60°
2026-04-20 22:48 52.29962 -9.14910 10520 ft 286 kts 60°
2026-04-20 22:48 52.31022 -9.12011 10967 ft 308 kts 59°
2026-04-20 22:48 52.32132 -9.08968 11633 ft 319 kts 59°
2026-04-20 22:49 52.33279 -9.05807 12491 ft 322 kts 60°
2026-04-20 22:49 52.34433 -9.02630 13315 ft 329 kts 60°
2026-04-20 22:49 52.35621 -8.99364 14075 ft 338 kts 59°
2026-04-20 22:49 52.36833 -8.96022 14854 ft 345 kts 59°
2026-04-20 22:50 52.38070 -8.92606 15754 ft 349 kts 58°
2026-04-20 22:50 52.39297 -8.89210 16678 ft 351 kts 57°
2026-04-20 22:50 52.40543 -8.85758 17553 ft 355 kts 57°
2026-04-20 22:50 52.41811 -8.82241 18304 ft 362 kts 56°
2026-04-20 22:51 52.43103 -8.78655 19033 ft 368 kts 56°
2026-04-20 22:51 52.44406 -8.75029 19737 ft 374 kts 56°
2026-04-20 22:51 52.45738 -8.71319 20458 ft 380 kts 56°
2026-04-20 22:51 52.47083 -8.67563 21158 ft 385 kts 56°
2026-04-20 22:52 52.48449 -8.63744 21828 ft 391 kts 56°
2026-04-20 22:52 52.49833 -8.59867 22480 ft 396 kts 56°
2026-04-20 22:52 52.51234 -8.55934 23089 ft 402 kts 56°
2026-04-20 22:52 52.52655 -8.51940 23685 ft 408 kts 56°
2026-04-20 22:53 52.54095 -8.47888 24272 ft 413 kts 56°
2026-04-20 22:53 52.55549 -8.43787 24855 ft 418 kts 56°
2026-04-20 22:53 52.57020 -8.39634 25448 ft 422 kts 56°
2026-04-20 22:53 52.58496 -8.35458 26013 ft 425 kts 56°
2026-04-20 22:54 52.59989 -8.31229 26563 ft 429 kts 55°
2026-04-20 22:54 52.61491 -8.26963 27151 ft 431 kts 55°
2026-04-20 22:54 52.62970 -8.22755 27846 ft 429 kts 55°
2026-04-20 22:54 52.64466 -8.18490 28582 ft 427 kts 55°
2026-04-20 22:55 52.65945 -8.14265 29225 ft 427 kts 54°
2026-04-20 22:55 52.67428 -8.10022 29817 ft 427 kts 54°
2026-04-20 22:55 52.68904 -8.05797 30409 ft 427 kts 54°
2026-04-20 22:55 52.70382 -8.01559 31038 ft 424 kts 54°
2026-04-20 22:56 52.71849 -7.97342 31628 ft 423 kts 54°
2026-04-20 22:56 52.73309 -7.93139 32216 ft 421 kts 55°
2026-04-20 22:56 52.74768 -7.88938 32790 ft 419 kts 55°
2026-04-20 22:56 52.76212 -7.84771 33269 ft 419 kts 55°
2026-04-20 22:57 52.79084 -7.76459 33276 ft 416 kts 55°
2026-04-20 22:57 52.81937 -7.68180 33286 ft 418 kts 55°
2026-04-20 22:58 52.84810 -7.59813 33286 ft 418 kts 56°
2026-04-20 22:58 52.87681 -7.51421 33282 ft 418 kts 56°
2026-04-20 22:59 52.90540 -7.43033 33274 ft 416 kts 56°
2026-04-20 22:59 52.93369 -7.34702 33276 ft 414 kts 56°
2026-04-20 23:00 52.96203 -7.26335 33285 ft 417 kts 56°
2026-04-20 23:00 52.99046 -7.17915 33278 ft 418 kts 56°
2026-04-20 23:01 53.01866 -7.09529 33285 ft 418 kts 56°
2026-04-20 23:01 53.04673 -7.01149 33277 ft 413 kts 57°
2026-04-20 23:02 53.07459 -6.92810 33288 ft 413 kts 57°
2026-04-20 23:02 53.10245 -6.84444 33300 ft 413 kts 57°
2026-04-20 23:03 53.13027 -6.76064 33296 ft 413 kts 57°
2026-04-20 23:03 53.15781 -6.67735 33298 ft 414 kts 57°
2026-04-20 23:04 53.18585 -6.59234 33317 ft 427 kts 57°
2026-04-20 23:04 53.20036 -6.54832 33313 ft 438 kts 57°
2026-04-20 23:04 53.21521 -6.50314 33311 ft 449 kts 58°
2026-04-20 23:05 53.24583 -6.40959 33312 ft 468 kts 58°
2026-04-20 23:05 53.27746 -6.31247 33305 ft 483 kts 58°
2026-04-20 23:06 53.31002 -6.21209 33316 ft 495 kts 58°
2026-04-20 23:06 53.34250 -6.11147 33303 ft 494 kts 59°
2026-04-20 23:07 53.37496 -6.01050 33307 ft 491 kts 59°
2026-04-20 23:07 53.40533 -5.90741 33300 ft 496 kts 69°
2026-04-20 23:08 53.41315 -5.85110 33317 ft 498 kts 82°
2026-04-20 23:08 53.41461 -5.79398 33326 ft 500 kts 91°
2026-04-20 23:08 53.40780 -5.67727 33319 ft 502 kts 96°
2026-04-20 23:09 53.39995 -5.56117 33306 ft 498 kts 94°
2026-04-20 23:09 53.39431 -5.44661 33309 ft 495 kts 93°
2026-04-20 23:10 53.38964 -5.33009 33020 ft 502 kts 92°
2026-04-20 23:10 53.38733 -5.27240 32557 ft 503 kts 93°
2026-04-20 23:10 53.38492 -5.21416 32034 ft 501 kts 93°
2026-04-20 23:11 53.38242 -5.15599 31499 ft 500 kts 93°
2026-04-20 23:11 53.37992 -5.09914 30909 ft 502 kts 93°
2026-04-20 23:11 53.37731 -5.04083 30402 ft 501 kts 93°
2026-04-20 23:11 53.37467 -4.98270 29921 ft 503 kts 93°
2026-04-20 23:12 53.37197 -4.92380 29386 ft 509 kts 93°
2026-04-20 23:12 53.36923 -4.86471 28867 ft 509 kts 93°
2026-04-20 23:12 53.36646 -4.80549 28349 ft 512 kts 93°
2026-04-20 23:12 53.36365 -4.74615 27821 ft 511 kts 93°
2026-04-20 23:13 53.36082 -4.68700 27290 ft 508 kts 94°
2026-04-20 23:13 53.35800 -4.62870 26767 ft 505 kts 94°
2026-04-20 23:13 53.35516 -4.57050 26244 ft 503 kts 94°
2026-04-20 23:13 53.35229 -4.51218 25718 ft 501 kts 94°
2026-04-20 23:14 53.34941 -4.45425 25193 ft 498 kts 94°
2026-04-20 23:14 53.34651 -4.39667 24667 ft 495 kts 94°
2026-04-20 23:14 53.34361 -4.33958 24138 ft 489 kts 94°
2026-04-20 23:14 53.34072 -4.28321 23615 ft 481 kts 94°
2026-04-20 23:15 53.33786 -4.22801 23099 ft 471 kts 94°
2026-04-20 23:15 53.33503 -4.17364 22597 ft 468 kts 94°
2026-04-20 23:15 53.33219 -4.11963 22097 ft 464 kts 94°
2026-04-20 23:15 53.32935 -4.06601 21595 ft 460 kts 94°
2026-04-20 23:16 53.32651 -4.01304 21091 ft 454 kts 95°
2026-04-20 23:16 53.32370 -3.96082 20596 ft 449 kts 95°
2026-04-20 23:16 53.32092 -3.90970 20108 ft 444 kts 95°
2026-04-20 23:16 53.31811 -3.85853 19622 ft 440 kts 95°
2026-04-20 23:17 53.31527 -3.80709 19121 ft 436 kts 95°
2026-04-20 23:17 53.31247 -3.75677 18634 ft 433 kts 95°
2026-04-20 23:17 53.30972 -3.70746 18162 ft 430 kts 95°
2026-04-20 23:17 53.30692 -3.65793 17687 ft 426 kts 95°
2026-04-20 23:18 53.30412 -3.60881 17187 ft 423 kts 95°
2026-04-20 23:18 53.30131 -3.56003 16587 ft 416 kts 95°
2026-04-20 23:18 53.29852 -3.51211 16012 ft 413 kts 95°
2026-04-20 23:18 53.29586 -3.46651 15464 ft 410 kts 95°
2026-04-20 23:19 53.29308 -3.41912 14893 ft 406 kts 95°
2026-04-20 23:19 53.29032 -3.37240 14321 ft 402 kts 95°
2026-04-20 23:19 53.28756 -3.32610 13763 ft 398 kts 95°
2026-04-20 23:19 53.28482 -3.28030 13224 ft 395 kts 95°
2026-04-20 23:20 53.28211 -3.23483 12662 ft 391 kts 95°
2026-04-20 23:20 53.27939 -3.19045 12123 ft 387 kts 95°
2026-04-20 23:20 53.27666 -3.14577 11581 ft 384 kts 95°
2026-04-20 23:20 53.27392 -3.10161 11064 ft 381 kts 95°
2026-04-20 23:21 53.27122 -3.05759 10522 ft 379 kts 95°
2026-04-20 23:21 53.26851 -3.01394 9991 ft 377 kts 95°
2026-04-20 23:21 53.26582 -2.97081 9470 ft 371 kts 95°
2026-04-20 23:21 53.26318 -2.92894 9304 ft 354 kts 95°
2026-04-20 23:22 53.26068 -2.88974 9122 ft 324 kts 95°
2026-04-20 23:22 53.25839 -2.85387 8950 ft 299 kts 95°
2026-04-20 23:22 53.25626 -2.82054 8805 ft 278 kts 95°
2026-04-20 23:22 53.25430 -2.78994 8589 ft 263 kts 95°
2026-04-20 23:23 53.25234 -2.75941 8119 ft 258 kts 95°
2026-04-20 23:23 53.25045 -2.73008 7845 ft 248 kts 95°
2026-04-20 23:23 53.24866 -2.70240 7531 ft 233 kts 95°
2026-04-20 23:23 53.24694 -2.67588 6999 ft 225 kts 95°
2026-04-20 23:24 53.24529 -2.65062 6513 ft 217 kts 95°
2026-04-20 23:24 53.24372 -2.62637 6211 ft 203 kts 95°
2026-04-20 23:24 53.24227 -2.60420 6091 ft 183 kts 94°
2026-04-20 23:24 53.24095 -2.58364 5762 ft 175 kts 94°
2026-04-20 23:25 53.23962 -2.56353 5279 ft 176 kts 95°
2026-04-20 23:25 53.23827 -2.54331 4803 ft 173 kts 95°
2026-04-20 23:25 53.23852 -2.52352 4285 ft 171 kts 69°
2026-04-20 23:25 53.24498 -2.50712 3809 ft 168 kts 59°
2026-04-20 23:26 53.25115 -2.49079 3322 ft 167 kts 58°
2026-04-20 23:26 53.25549 -2.48035 3107 ft 160 kts 56°
2026-04-20 23:26 53.26192 -2.46619 2882 ft 148 kts 54°
2026-04-20 23:26 53.26810 -2.45310 2685 ft 142 kts 54°
2026-04-20 23:27 53.27430 -2.44010 2519 ft 143 kts 53°
2026-04-20 23:27 53.28028 -2.42763 2328 ft 132 kts 53°
2026-04-20 23:27 53.28594 -2.41585 2153 ft 130 kts 53°
2026-04-20 23:27 53.29160 -2.40408 1979 ft 129 kts 53°
2026-04-20 23:28 53.29727 -2.39228 1801 ft 131 kts 53°
2026-04-20 23:28 53.30297 -2.38041 1632 ft 131 kts 52°
2026-04-20 23:28 53.30865 -2.36859 1462 ft 133 kts 52°
2026-04-20 23:28 53.31445 -2.35653 1283 ft 133 kts 52°
2026-04-20 23:29 53.32023 -2.34452 1104 ft 132 kts 52°
2026-04-20 23:29 53.32599 -2.33256 931 ft 132 kts 52°
2026-04-20 23:29 53.33172 -2.32064 757 ft 132 kts 52°
2026-04-20 23:29 53.33748 -2.30868 580 ft 131 kts 52°
2026-04-20 23:30 53.34319 -2.29684 406 ft 130 kts 52°
2026-04-20 23:30 53.34889 -2.28517 241 ft 129 kts 52°
2026-04-20 23:30 53.35376 -2.27498 251 ft 86 kts 52°
2026-04-20 23:30 53.35656 -2.26916 259 ft 50 kts 51°
2026-04-20 23:31 53.35776 -2.26678 263 ft 0 kts 27°
2026-04-20 23:31 53.35797 -2.26679 263 ft 8 kts 353°
2026-04-20 23:31 53.35849 -2.26694 261 ft 4 kts 350°
2026-04-20 23:31 53.35900 -2.26722 255 ft 10 kts 315°
2026-04-20 23:32 53.35935 -2.26831 254 ft 11 kts 307°
2026-04-20 23:32 53.35973 -2.26868 254 ft 6 kts 321°
2026-04-20 23:32 53.36001 -2.26913 254 ft 0 kts 314°
2026-04-20 23:32 53.36003 -2.26917 254 ft 1 kts 314°
2026-04-20 23:33 53.36004 -2.26920 254 ft 0 kts 314°